QPF
0.00 0.00 0.00 0.00 0.00 0.00 0.00 0.00 0.00 0.00 0.00 0.00 0.00 0.00 0.00 0.00 0.00 0.00 0.00 0.00 0.00 0.00 0.00 0.00 0.00 0.00 0.00 0.00 0.00 0.00 0.00 0.00 0.00 0.00 0.00 0.00 0.00 0.00 0.00 0.00 0.00 0.00 0.00 0.00 0.00
0.00 0.00 0.00 0.00 0.00 0.00 0.00 0.00 0.00 0.00 0.00 0.00 0.00 0.00 0.00 0.00 0.00 0.00 0.00 0.00 0.00 0.00 0.00 0.00 0.00 0.00 0.00 0.00 0.00 0.00 0.00 0.00 0.00 0.00 0.00 0.00 0.00 0.00 0.00 0.00 0.00 0.00 0.00 0.00 0.00
0.00 0.00 0.00 0.00 0.00 0.00 0.00 0.00 0.00 0.00 0.00 0.00 0.00 0.00 0.00 0.00 0.00 0.00 0.00 0.00 0.00 0.00 0.00 0.00 0.00 0.00 0.00 0.00 0.00 0.00 0.00 0.00 0.00 0.00 0.00 0.00 0.00 0.00 0.00 0.00 0.00 0.00 0.00 0.00 0.00
0.00 0.00 0.00 0.00 0.00 0.00 0.00 0.00 0.00 0.00 0.00 0.00 0.00 0.00 0.00 0.00 0.00 0.00 0.00 0.00 0.00 0.00 0.00 0.00 0.00 0.00 0.00 0.00 0.00 0.00 0.00 0.00 0.00 0.00 0.00 0.00 0.00 0.00 0.00 0.00 0.00 0.00 0.00 0.00 0.00
0.00 0.00 0.00 0.00 0.00 0.00 0.00 0.00 0.00 0.00 0.00 0.00 0.00 0.00 0.00 0.00 0.00 0.00 0.00 0.00 0.00 0.00 0.00 0.00 0.00 0.00 0.00 0.00 0.00 0.00 0.00 0.00 0.00 0.00 0.00 0.00 0.00 0.00 0.00 0.00 0.00 0.00 0.00 0.00 0.00
0.00 0.00 0.00 0.00 0.00 0.00 0.00 0.00 0.00 0.00 0.00 0.00 0.00 0.00 0.00 0.00 0.00 0.00 0.00 0.00 0.00 0.00 0.00 0.00 0.00 0.00 0.00 0.00 0.00 0.00 0.00 0.00 0.00 0.00 0.00 0.00 0.00 0.00 0.00 0.00 0.00 0.00 0.00 0.00 0.00
0.00 0.00 0.00 0.00 0.00 0.00 0.00 0.00 0.00 0.00 0.00 0.00 0.00 0.00 0.00 0.00 0.00 0.00 0.00 0.00 0.00 0.00 0.00 0.00 0.00 0.00 0.00 0.00 0.00 0.00 0.00 0.00 0.00 0.00 0.00 0.00 0.00 0.00 0.00 0.00 0.00 0.00 0.00 0.00 0.00
0.01 0.00 0.00 0.00 0.00 0.00 0.00 0.00 0.00 0.00 0.00 0.00 0.00 0.00 0.00 0.00 0.00 0.00 0.00 0.00 0.00 0.00 0.00 0.00 0.00 0.00 0.00 0.00 0.00 0.00 0.00 0.00 0.00 0.00 0.00 0.00 0.00 0.00 0.00 0.00 0.00 0.00 0.00 0.00 0.00
0.00 0.00 0.00 0.00 0.00 0.00 0.00 0.00 0.00 0.00 0.00 0.00 0.00 0.00 0.00 0.00 0.00 0.00 0.00 0.00 0.00 0.00 0.00 0.00 0.00 0.00 0.00 0.00 0.00 0.00 0.00 0.00 0.00 0.00 0.00 0.00 0.00 0.00 0.00 0.00 0.00 0.00 0.00 0.00 0.00
0.00 0.00 0.00 0.00 0.00 0.00 0.00 0.00 0.00 0.00 0.00 0.00 0.00 0.00 0.00 0.00 0.00 0.00 0.00 0.00 0.00 0.00 0.00 0.00 0.00 0.00 0.00 0.00 0.00 0.00 0.00 0.00 0.00 0.00 0.00 0.00 0.00 0.00 0.00 0.00 0.00 0.00 0.00 0.00 0.00
0.00 0.00 0.00 0.00 0.00 0.00 0.00 0.00 0.00 0.00 0.00 0.00 0.00 0.00 0.00 0.00 0.00 0.00 0.00 0.00 0.00 0.00 0.00 0.00 0.00 0.00 0.00 0.00 0.00 0.00 0.00 0.00 0.00 0.00 0.00 0.00 0.00 0.00 0.00 0.00 0.00 0.00 0.00 0.00 0.00
0.00 0.00 0.00 0.00 0.00 0.00 0.00 0.00 0.00 0.00 0.00 0.00 0.00 0.00 0.00 0.00 0.00 0.00 0.00 0.00 0.00 0.00 0.00 0.00 0.00 0.00 0.00 0.00 0.00 0.00 0.00 0.00 0.00 0.00 0.00 0.00 0.00 0.00 0.00 0.00 0.00 0.00 0.00 0.00 0.00
0.00 0.00 0.00 0.00 0.00 0.00 0.00 0.00 0.00 0.00 0.00 0.00 0.00 0.00 0.00 0.00 0.00 0.00 0.00 0.00 0.00 0.00 0.00 0.00 0.00 0.00 0.00 0.00 0.00 0.00 0.00 0.00 0.00 0.00 0.00 0.00 0.00 0.00 0.00 0.00 0.00 0.00 0.00 0.00 0.00
0.00 0.00 0.00 0.00 0.00 0.00 0.00 0.00 0.00 0.00 0.00 0.00 0.00 0.00 0.00 0.00 0.00 0.00 0.00 0.00 0.00 0.00 0.00 0.00 0.00 0.00 0.00 0.00 0.00 0.00 0.00 0.00 0.00 0.00 0.00 0.00 0.00 0.00 0.00 0.00 0.00 0.00 0.00 0.00 0.00
0.00 0.00 0.00 0.00 0.00 0.00 0.00 0.00 0.00 0.00 0.00 0.00 0.00 0.00 0.00 0.00 0.00 0.00 0.00 0.00 0.00 0.00 0.00 0.00 0.00 0.00 0.00 0.00 0.00 0.00 0.00 0.00 0.00 0.00 0.00 0.00 0.00 0.00 0.00 0.00 0.00 0.00 0.00 0.00 0.00
0.00 0.00 0.00 0.00 0.00 0.00 0.00 0.00 0.00 0.00 0.00 0.00 0.00 0.00 0.00 0.00 0.00 0.00 0.00 0.00 0.00 0.00 0.00 0.00 0.00 0.00 0.00 0.00 0.00 0.00 0.00 0.00 0.00 0.00 0.00 0.00 0.00 0.00 0.00 0.00 0.00 0.00 0.00 0.00 0.00
0.00 0.00 0.00 0.00 0.00 0.00 0.00 0.00 0.00 0.00 0.00 0.00 0.00 0.00 0.00 0.00 0.00 0.00 0.00 0.00 0.00 0.00 0.00 0.00 0.00 0.00 0.00 0.00 0.00 0.00 0.00 0.00 0.00 0.00 0.00 0.00 0.00 0.00 0.00 0.00 0.00 0.00 0.00 0.00 0.00
0.00 0.00 0.00 0.00 0.00 0.00 0.00 0.00 0.00 0.00 0.00 0.00 0.00 0.00 0.00 0.00 0.00 0.00 0.00 0.00 0.00 0.00 0.00 0.00 0.00 0.00 0.00 0.00 0.00 0.00 0.00 0.00 0.00 0.00 0.00 0.00 0.00 0.00 0.00 0.00 0.00 0.00 0.00 0.00 0.00
0.00 0.00 0.00 0.00 0.00 0.00 0.02 0.02 0.00 0.00 0.00 0.00 0.00 0.00 0.00 0.00 0.00 0.00 0.00 0.00 0.00 0.00 0.00 0.00 0.00 0.00 0.00 0.00 0.00 0.00 0.00 0.00 0.00 0.00 0.00 0.00 0.00 0.00 0.00 0.00 0.00 0.00 0.00 0.00 0.00
0.00 0.00 0.00 0.00 0.00 0.01 0.01 0.02 0.00 0.00 0.00 0.00 0.00 0.00 0.00 0.00 0.00 0.00 0.00 0.00 0.00 0.00 0.00 0.00 0.00 0.00 0.00 0.00 0.00 0.00 0.00 0.00 0.00 0.00 0.00 0.00 0.00 0.00 0.00 0.00 0.00 0.00 0.00 0.00 0.00
0.00 0.00 0.00 0.00 0.02 0.02 0.00 0.00 0.00 0.00 0.00 0.00 0.00 0.00 0.00 0.00 0.00 0.00 0.00 0.00 0.00 0.00 0.00 0.00 0.00 0.00 0.00 0.00 0.00 0.00 0.00 0.00 0.00 0.00 0.00 0.00 0.00 0.00 0.00 0.00 0.00 0.00 0.00 0.00 0.00
0.01 0.00 0.00 0.02 0.04 0.02 0.00 0.00 0.00 0.00 0.00 0.00 0.00 0.00 0.00 0.00 0.00 0.00 0.00 0.00 0.00 0.00 0.00 0.00 0.00 0.00 0.00 0.00 0.00 0.00 0.00 0.00 0.00 0.00 0.00 0.00 0.00 0.00 0.00 0.00 0.00 0.00 0.00 0.00 0.00
0.01 0.00 0.00 0.00 0.00 0.00 0.00 0.00 0.00 0.00 0.00 0.00 0.00 0.00 0.00 0.00 0.00 0.00 0.00 0.00 0.00 0.00 0.00 0.00 0.00 0.00 0.00 0.00 0.00 0.00 0.00 0.00 0.00 0.00 0.00 0.00 0.00 0.00 0.00 0.00 0.00 0.00 0.00 0.00 0.00
0.02 0.00 0.01 0.00 0.00 0.00 0.00 0.00 0.01 0.00 0.01 0.00 0.01 0.00 0.00 0.00 0.00 0.00 0.00 0.00 0.00 0.00 0.00 0.00 0.00 0.00 0.00 0.00 0.00 0.00 0.00 0.00 0.00 0.00 0.00 0.00 0.00 0.00 0.00 0.00 0.00 0.00 0.00 0.00 0.00
0.07 0.01 0.00 0.00 0.00 0.00 0.00 0.00 0.00 0.02 0.03 0.04 0.02 0.00 0.00 0.02 0.01 0.00 0.00 0.00 0.00 0.00 0.00 0.00 0.00 0.00 0.00 0.00 0.00 0.00 0.00 0.00 0.00 0.00 0.00 0.00 0.00 0.00 0.00 0.00 0.00 0.00 0.00 0.00 0.00
0.12 0.01 0.01 0.00 0.00 0.00 0.00 0.00 0.01 0.00 0.01 0.03 0.08 0.04 0.01 0.01 0.01 0.01 0.00 0.00 0.00 0.00 0.00 0.00 0.00 0.00 0.00 0.00 0.00 0.00 0.00 0.00 0.00 0.00 0.00 0.00 0.00 0.00 0.00 0.00 0.00 0.00 0.00 0.00 0.00
0.09 0.01 0.01 0.01 0.00 0.01 0.01 0.00 0.00 0.00 0.02 0.01 0.02 0.03 0.03 0.02 0.00 0.00 0.00 0.00 0.00 0.00 0.00 0.00 0.00 0.00 0.00 0.00 0.00 0.00 0.00 0.00 0.00 0.00 0.00 0.00 0.00 0.00 0.00 0.00 0.00 0.00 0.00 0.00 0.00
MSLP
1019.99 1019.72 1019.37 1019.06 1018.80 1018.52 1018.31 1017.96 1017.55 1017.12 1016.85 1016.58 1016.17 1015.83 1015.61 1015.59 1014.89 1014.71 1013.60 1013.20 1013.24 1013.39 1013.67 1013.78 1013.51 1013.51 1013.43 1013.34 1013.51 1013.34 1012.32 1011.40 1011.44 1011.65 1011.43 1011.89 1011.82 1011.95 1012.10 1011.81 1011.81 1011.82 1011.74 1012.13 1012.48
1020.05 1019.72 1019.48 1019.20 1018.89 1018.57 1018.28 1017.96 1017.60 1017.18 1016.69 1016.44 1016.11 1015.81 1015.51 1015.20 1014.33 1013.30 1012.73 1013.16 1013.36 1013.48 1013.43 1013.22 1013.14 1013.25 1013.17 1013.27 1013.40 1012.86 1011.97 1011.67 1011.96 1011.87 1011.76 1011.96 1011.98 1011.83 1011.95 1011.64 1011.65 1011.90 1012.17 1012.51 1012.49
1020.14 1019.85 1019.47 1019.06 1018.77 1018.55 1018.20 1017.85 1017.57 1017.11 1016.78 1016.42 1016.23 1015.82 1015.41 1014.74 1013.58 1012.04 1012.29 1012.96 1013.30 1013.46 1013.31 1013.17 1013.09 1013.12 1013.13 1013.32 1013.04 1012.80 1011.84 1012.03 1012.14 1012.21 1012.22 1012.02 1011.97 1012.01 1011.87 1011.75 1012.09 1012.29 1012.48 1012.74 1012.79
1020.02 1019.83 1019.60 1019.31 1018.80 1018.34 1018.01 1017.73 1017.34 1016.98 1016.58 1016.38 1016.21 1015.88 1015.29 1014.42 1012.79 1012.05 1012.60 1012.83 1013.34 1013.33 1013.14 1013.15 1013.20 1013.07 1012.89 1012.67 1012.81 1012.45 1012.21 1012.31 1012.28 1012.42 1012.33 1012.04 1011.85 1011.81 1011.99 1011.95 1012.62 1013.05 1013.09 1013.04 1012.83
1019.69 1019.51 1019.41 1019.23 1018.96 1018.52 1017.96 1017.37 1017.04 1016.63 1016.34 1016.04 1015.98 1015.78 1015.12 1013.68 1011.99 1011.97 1012.55 1012.93 1013.03 1013.22 1012.93 1012.97 1012.91 1012.85 1012.45 1012.46 1012.72 1012.38 1012.15 1012.36 1012.39 1012.45 1012.33 1012.17 1011.85 1011.82 1011.91 1012.51 1012.97 1013.29 1013.29 1013.17 1013.05
1019.81 1019.46 1019.11 1018.98 1018.78 1018.54 1018.01 1017.46 1016.92 1016.38 1015.92 1015.70 1015.52 1015.85 1014.52 1012.64 1011.66 1011.71 1012.13 1012.77 1012.71 1012.82 1012.85 1012.97 1012.68 1012.82 1012.47 1012.51 1012.53 1012.34 1012.42 1012.20 1012.09 1011.95 1012.00 1011.90 1011.59 1012.13 1011.68 1012.52 1012.84 1013.07 1013.08 1013.09 1013.07
1019.96 1019.69 1019.23 1018.77 1018.43 1017.96 1017.74 1017.33 1016.84 1016.13 1015.68 1015.41 1015.05 1015.12 1013.94 1012.06 1011.55 1011.66 1012.09 1012.19 1012.55 1012.52 1012.68 1013.00 1013.04 1012.93 1012.66 1012.52 1012.76 1012.66 1012.35 1011.71 1011.55 1011.68 1011.56 1011.86 1011.49 1011.22 1011.40 1012.32 1012.37 1012.62 1012.77 1012.99 1013.12
1019.71 1019.38 1019.14 1018.88 1018.28 1017.84 1017.13 1016.66 1016.26 1015.71 1015.41 1015.44 1015.37 1014.44 1012.44 1011.93 1012.00 1011.96 1011.93 1012.21 1012.49 1012.70 1012.73 1013.11 1013.27 1013.07 1012.76 1012.92 1012.72 1012.38 1012.24 1011.12 1011.21 1011.59 1011.73 1011.86 1010.29 1010.57 1011.60 1011.92 1011.85 1012.11 1012.23 1012.64 1012.73
1020.02 1019.58 1019.01 1018.57 1018.16 1017.56 1016.89 1016.25 1015.71 1015.46 1015.33 1015.36 1015.09 1014.13 1011.96 1012.25 1011.79 1011.63 1011.63 1011.63 1012.25 1012.64 1012.87 1013.13 1013.17 1012.99 1013.09 1012.37 1011.98 1011.88 1010.84 1011.01 1010.99 1011.47 1011.49 1011.50 1010.20 1010.75 1011.49 1011.65 1011.54 1011.80 1011.99 1012.17 1012.30
1019.97 1019.58 1019.17 1018.58 1018.00 1017.32 1016.53 1015.63 1015.32 1015.24 1015.19 1014.96 1014.56 1014.10 1011.95 1011.09 1011.10 1011.08 1011.56 1011.77 1011.93 1012.40 1012.77 1012.84 1012.79 1012.50 1012.37 1011.92 1010.70 1010.67 1010.90 1010.90 1010.89 1011.25 1011.38 1010.99 1010.35 1010.31 1011.10 1011.42 1011.40 1011.78 1011.94 1011.90 1011.93
1019.88 1019.53 1019.06 1018.47 1018.04 1017.37 1016.17 1015.12 1015.16 1014.96 1014.33 1012.83 1012.40 1011.53 1010.93 1010.98 1011.06 1011.09 1011.17 1011.66 1011.78 1011.92 1011.79 1012.45 1012.16 1011.28 1011.10 1011.32 1011.29 1011.36 1011.18 1010.81 1010.75 1011.25 1011.50 1010.49 1010.17 1010.19 1010.56 1011.22 1011.55 1011.87 1011.94 1011.97 1011.89
1020.10 1019.66 1019.10 1018.37 1017.80 1017.13 1016.52 1015.53 1016.29 1016.55 1014.30 1012.32 1011.72 1011.43 1011.27 1010.66 1010.43 1010.50 1011.16 1010.92 1011.29 1011.20 1011.73 1012.18 1011.30 1010.88 1011.44 1011.74 1011.76 1011.51 1011.13 1010.78 1010.85 1011.31 1011.52 1010.37 1009.93 1009.82 1010.62 1011.08 1011.88 1012.17 1012.16 1012.34 1012.33
1020.36 1019.83 1019.21 1018.35 1017.41 1016.95 1016.73 1016.58 1016.70 1016.44 1014.59 1011.25 1010.38 1009.74 1009.61 1010.53 1009.75 1009.56 1010.38 1010.28 1010.24 1010.63 1011.10 1010.70 1010.64 1011.18 1011.42 1011.69 1011.69 1011.33 1011.08 1010.89 1011.18 1011.31 1011.24 1010.84 1009.39 1009.91 1010.87 1011.50 1012.16 1012.25 1012.64 1012.75 1012.97
1020.50 1020.03 1019.39 1018.37 1017.64 1017.28 1016.39 1016.66 1016.56 1016.20 1013.69 1009.98 1009.53 1008.35 1008.79 1009.16 1009.34 1008.75 1009.32 1009.88 1010.22 1009.91 1010.66 1010.74 1010.33 1011.17 1011.30 1011.13 1011.46 1010.98 1011.28 1011.53 1011.54 1011.55 1010.44 1011.02 1009.06 1009.27 1010.13 1010.92 1011.77 1012.11 1012.56 1012.96 1013.53
1020.46 1020.12 1019.68 1019.08 1018.54 1017.38 1016.95 1016.54 1016.03 1015.95 1012.39 1008.61 1008.62 1008.45 1008.14 1008.01 1008.04 1008.87 1008.94 1009.32 1009.19 1009.78 1010.47 1009.83 1010.37 1010.77 1010.85 1010.62 1011.25 1011.11 1011.86 1011.84 1011.78 1011.45 1011.11 1010.35 1010.18 1008.46 1010.02 1010.36 1011.17 1012.09 1012.73 1013.34 1013.77
1020.48 1020.19 1019.84 1018.88 1018.58 1017.72 1017.27 1016.58 1015.80 1014.62 1010.03 1008.24 1008.24 1008.17 1008.13 1008.02 1008.41 1009.02 1008.89 1009.15 1009.19 1009.81 1009.98 1009.65 1010.65 1010.59 1010.40 1011.18 1011.26 1011.88 1012.13 1012.24 1012.11 1011.61 1010.60 1009.58 1009.95 1008.01 1009.11 1009.97 1011.25 1012.10 1012.67 1013.55 1013.92
1020.19 1020.05 1019.87 1019.18 1018.17 1017.74 1017.49 1016.75 1015.29 1011.82 1009.00 1007.98 1007.84 1007.99 1007.78 1007.78 1008.23 1008.31 1008.29 1008.20 1008.19 1009.07 1008.91 1009.37 1009.70 1010.31 1010.59 1011.02 1011.75 1011.64 1011.72 1011.37 1011.27 1011.15 1009.80 1010.48 1010.25 1008.40 1009.37 1010.54 1011.37 1012.17 1012.74 1013.68 1014.16
1019.89 1019.73 1019.11 1018.87 1018.28 1018.20 1017.81 1017.02 1014.05 1009.18 1008.69 1008.19 1008.00 1008.02 1007.92 1007.96 1007.85 1008.09 1008.02 1007.55 1007.67 1007.67 1007.96 1008.10 1008.56 1009.41 1009.72 1009.58 1010.08 1010.76 1010.95 1010.84 1010.57 1010.23 1010.11 1010.84 1009.45 1008.58 1009.68 1010.75 1011.75 1012.57 1013.07 1013.77 1014.26
1019.67 1019.11 1018.75 1017.76 1017.83 1018.14 1017.92 1016.22 1010.91 1010.00 1009.19 1008.43 1008.49 1008.09 1007.57 1007.71 1007.71 1007.84 1007.33 1006.80 1006.63 1007.22 1007.02 1007.32 1007.68 1009.07 1009.75 1009.78 1009.91 1010.83 1010.90 1011.02 1010.90 1011.08 1010.13 1008.85 1008.51 1009.39 1010.05 1010.72 1011.61 1012.21 1012.91 1013.50 1014.27
1019.51 1018.92 1018.02 1017.37 1017.52 1017.85 1017.31 1014.26 1011.94 1010.57 1009.79 1009.37 1008.21 1007.65 1007.06 1007.22 1007.58 1007.37 1007.02 1005.82 1006.11 1006.24 1006.27 1006.59 1007.50 1008.78 1010.02 1010.14 1010.40 1009.84 1010.04 1010.75 1010.45 1009.78 1008.17 1007.13 1007.19 1006.71 1008.83 1009.61 1010.76 1011.66 1012.34 1013.18 1014.06
1019.26 1018.31 1016.91 1017.02 1017.41 1017.39 1015.89 1014.25 1012.71 1011.78 1011.62 1010.72 1008.79 1007.89 1007.18 1006.82 1006.84 1006.49 1005.95 1005.94 1005.57 1005.97 1006.34 1006.29 1006.93 1008.85 1009.50 1009.15 1008.46 1009.77 1009.42 1009.47 1009.23 1008.61 1007.19 1006.08 1005.52 1005.98 1007.09 1008.47 1009.69 1010.88 1011.95 1012.83 1013.71
1018.69 1017.73 1016.82 1016.95 1017.06 1016.09 1015.04 1014.45 1013.47 1012.33 1011.98 1011.45 1010.25 1009.21 1008.65 1007.67 1006.94 1006.39 1005.53 1005.24 1004.99 1005.59 1005.72 1005.65 1005.94 1006.80 1007.74 1008.61 1008.63 1007.87 1007.72 1007.93 1007.48 1007.59 1007.26 1006.75 1005.69 1006.39 1007.04 1008.18 1009.28 1010.49 1011.71 1012.63 1013.57
1017.60 1017.04 1016.76 1016.71 1015.97 1015.44 1014.50 1014.05 1013.65 1012.81 1012.30 1011.81 1011.04 1009.93 1009.50 1008.85 1007.82 1006.50 1006.05 1005.76 1005.75 1005.54 1005.14 1005.92 1005.48 1005.95 1007.38 1008.37 1008.65 1007.73 1007.39 1007.32 1007.26 1007.14 1006.17 1005.70 1005.18 1006.58 1007.50 1008.29 1009.21 1010.22 1011.38 1012.36 1013.43
1016.85 1016.15 1016.25 1016.41 1015.51 1015.23 1014.47 1013.95 1013.44 1013.18 1012.94 1012.49 1011.82 1011.57 1010.71 1009.82 1008.85 1007.30 1006.83 1006.95 1006.58 1005.92 1005.53 1005.25 1004.57 1003.67 1003.57 1004.19 1005.12 1006.21 1006.08 1006.60 1006.48 1005.74 1004.87 1004.55 1004.76 1006.26 1007.10 1007.93 1008.93 1009.95 1010.94 1011.92 1013.02
1015.53 1014.38 1014.09 1014.70 1015.10 1014.93 1014.98 1014.41 1013.56 1013.07 1013.06 1013.49 1012.04 1011.42 1011.57 1010.95 1009.57 1008.75 1008.11 1007.75 1007.18 1006.80 1006.37 1005.48 1004.25 1004.05 1003.99 1004.41 1004.71 1004.83 1005.06 1005.65 1005.40 1004.69 1004.42 1003.37 1003.88 1004.21 1005.66 1006.77 1007.95 1009.25 1010.58 1011.46 1012.50
1014.30 1013.73 1014.04 1013.97 1014.30 1014.43 1014.37 1013.89 1013.48 1012.94 1013.07 1012.59 1012.94 1012.62 1011.23 1010.62 1010.11 1009.13 1009.85 1009.30 1008.65 1007.97 1007.19 1005.91 1004.33 1004.14 1004.08 1004.41 1004.59 1004.53 1004.63 1004.77 1004.73 1004.48 1004.04 1003.85 1003.56 1003.88 1004.35 1006.17 1007.55 1008.66 1009.85 1010.82 1011.64
1013.28 1012.93 1013.33 1013.31 1013.81 1014.09 1013.32 1013.13 1012.87 1012.88 1012.40 1012.21 1012.25 1011.95 1011.53 1010.40 1009.98 1009.89 1010.61 1010.81 1010.27 1009.66 1008.20 1006.37 1005.07 1004.27 1003.57 1004.25 1004.69 1003.95 1003.16 1003.66 1003.69 1003.42 1003.15 1003.32 1002.56 1003.50 1004.57 1005.17 1006.24 1007.58 1008.81 1009.73 1010.49
Thickness
5687 5687 5689 5691 5692 5693 5693 5693 5695 5697 5698 5699 5701 5703 5705 5706 5712 5715 5714 5722 5722 5724 5722 5719 5721 5719 5721 5716 5717 5718 5709 5709 5710 5706 5714 5721 5715 5722 5723 5716 5717 5718 5715 5712 5710
5683 5685 5685 5686 5687 5689 5690 5691 5693 5695 5698 5699 5700 5702 5704 5708 5714 5715 5726 5721 5719 5720 5718 5715 5711 5715 5709 5709 5710 5710 5707 5708 5714 5715 5712 5713 5711 5714 5709 5710 5708 5705 5707 5703 5700
5679 5680 5682 5684 5686 5686 5687 5689 5690 5692 5695 5697 5699 5701 5704 5709 5711 5719 5727 5719 5717 5716 5717 5717 5715 5711 5702 5705 5707 5705 5706 5710 5711 5712 5711 5708 5707 5710 5703 5696 5697 5691 5690 5687 5684
5676 5676 5677 5678 5681 5685 5687 5687 5689 5691 5693 5695 5697 5699 5703 5709 5696 5722 5721 5719 5714 5714 5715 5710 5706 5699 5697 5698 5706 5700 5709 5708 5709 5707 5704 5702 5708 5701 5698 5697 5692 5683 5680 5676 5673
5676 5675 5674 5674 5676 5679 5683 5686 5688 5690 5692 5695 5695 5697 5704 5703 5711 5724 5720 5716 5714 5711 5708 5703 5699 5698 5696 5701 5700 5699 5706 5706 5706 5702 5701 5702 5698 5695 5692 5689 5683 5676 5671 5667 5664
5670 5672 5674 5673 5673 5674 5677 5681 5685 5689 5692 5694 5694 5691 5701 5697 5724 5723 5720 5715 5714 5710 5704 5702 5701 5702 5699 5697 5696 5702 5700 5702 5703 5702 5699 5693 5695 5686 5692 5684 5676 5669 5665 5661 5655
5661 5664 5668 5671 5673 5675 5675 5678 5682 5688 5691 5692 5695 5693 5696 5706 5721 5721 5718 5715 5713 5709 5699 5701 5701 5696 5698 5692 5697 5694 5688 5699 5700 5698 5696 5692 5682 5682 5690 5678 5672 5665 5659 5651 5645
5658 5660 5661 5663 5668 5671 5676 5678 5681 5687 5688 5687 5687 5693 5698 5715 5711 5714 5717 5711 5710 5707 5703 5700 5698 5693 5692 5692 5689 5685 5684 5685 5695 5691 5690 5685 5680 5689 5681 5673 5668 5662 5655 5644 5639
5647 5651 5656 5659 5662 5666 5672 5676 5680 5680 5683 5682 5684 5687 5695 5708 5705 5710 5713 5707 5704 5701 5698 5696 5692 5686 5684 5683 5682 5682 5685 5679 5683 5688 5684 5679 5680 5682 5677 5670 5665 5658 5650 5641 5633
5640 5644 5647 5650 5656 5660 5667 5676 5676 5676 5677 5678 5681 5676 5696 5700 5706 5710 5709 5705 5698 5693 5686 5685 5683 5680 5680 5680 5676 5681 5676 5678 5675 5682 5677 5675 5675 5684 5675 5666 5661 5653 5645 5636 5626
5633 5636 5640 5643 5647 5652 5661 5672 5674 5671 5674 5686 5688 5690 5695 5701 5704 5699 5704 5695 5694 5690 5679 5679 5673 5675 5685 5686 5684 5678 5673 5673 5681 5679 5666 5674 5674 5677 5676 5663 5654 5646 5638 5628 5617
5622 5625 5629 5633 5640 5646 5649 5656 5649 5647 5661 5681 5684 5686 5687 5696 5690 5694 5697 5688 5681 5676 5678 5670 5670 5687 5681 5674 5670 5670 5669 5672 5677 5672 5664 5673 5670 5679 5667 5660 5647 5639 5632 5621 5610
5610 5614 5619 5624 5633 5636 5636 5638 5637 5639 5646 5682 5686 5690 5691 5686 5688 5692 5692 5689 5683 5676 5672 5676 5681 5677 5671 5665 5662 5667 5666 5670 5664 5667 5666 5660 5674 5666 5658 5652 5643 5639 5627 5617 5604
5597 5602 5606 5614 5620 5622 5629 5627 5626 5628 5637 5678 5679 5688 5689 5690 5676 5701 5698 5685 5675 5676 5673 5672 5685 5668 5665 5666 5665 5662 5670 5662 5657 5654 5659 5658 5665 5669 5662 5652 5642 5637 5626 5616 5599
5583 5587 5591 5597 5598 5608 5613 5615 5619 5617 5620 5672 5670 5689 5689 5684 5690 5682 5694 5682 5676 5669 5669 5675 5669 5664 5660 5668 5667 5665 5659 5657 5654 5653 5651 5658 5650 5681 5658 5653 5646 5634 5623 5612 5600
5566 5569 5574 5581 5583 5590 5594 5602 5608 5604 5618 5657 5661 5664 5669 5676 5672 5672 5676 5680 5683 5666 5666 5676 5669 5670 5672 5662 5666 5656 5651 5647 5647 5648 5647 5664 5653 5679 5665 5658 5642 5635 5626 5611 5602
5552 5554 5555 5560 5568 5571 5574 5581 5587 5603 5647 5649 5649 5652 5659 5662 5661 5663 5663 5664 5667 5649 5657 5666 5666 5666 5667 5655 5652 5654 5648 5641 5642 5636 5658 5644 5641 5671 5665 5650 5642 5633 5627 5613 5603
5536 5537 5542 5542 5546 5546 5549 5553 5562 5631 5633 5640 5636 5635 5636 5646 5653 5652 5652 5656 5667 5669 5660 5656 5656 5661 5670 5670 5661 5654 5655 5641 5632 5644 5648 5629 5640 5667 5660 5650 5640 5631 5625 5615 5605
5513 5520 5524 5526 5528 5523 5523 5524 5586 5606 5615 5615 5620 5614 5624 5631 5641 5640 5647 5656 5664 5664 5658 5657 5659 5660 5659 5663 5666 5645 5643 5652 5634 5624 5633 5653 5661 5653 5648 5644 5636 5632 5626 5620 5609
5489 5496 5502 5506 5501 5498 5497 5524 5557 5586 5591 5587 5593 5613 5616 5619 5618 5627 5634 5662 5659 5668 5677 5665 5650 5651 5643 5652 5649 5656 5658 5638 5640 5623 5644 5665 5661 5681 5648 5649 5641 5634 5630 5624 5615
5462 5472 5486 5480 5472 5469 5480 5506 5531 5554 5549 5553 5581 5591 5607 5612 5615 5617 5633 5647 5659 5656 5662 5662 5654 5636 5640 5646 5657 5642 5648 5647 5652 5649 5662 5667 5679 5684 5672 5661 5649 5641 5633 5627 5620
5435 5446 5459 5451 5449 5462 5472 5491 5507 5522 5529 5526 5545 5560 5572 5593 5597 5606 5621 5643 5652 5651 5643 5661 5658 5643 5642 5644 5650 5666 5663 5662 5657 5650 5653 5654 5674 5674 5673 5663 5655 5644 5634 5628 5621
5415 5429 5432 5428 5434 5444 5464 5472 5479 5495 5501 5504 5514 5543 5559 5564 5572 5594 5612 5622 5627 5638 5645 5640 5642 5633 5625 5630 5633 5646 5657 5661 5661 5654 5657 5659 5679 5667 5662 5657 5653 5643 5635 5629 5621
5397 5409 5414 5412 5428 5431 5442 5451 5456 5471 5472 5480 5495 5509 5521 5535 5556 5578 5591 5595 5605 5624 5635 5639 5639 5657 5660 5672 5672 5649 5658 5656 5659 5658 5670 5670 5676 5656 5655 5653 5650 5644 5638 5632 5624
5388 5402 5419 5409 5407 5417 5416 5426 5436 5447 5454 5449 5473 5492 5498 5495 5533 5548 5570 5576 5587 5601 5611 5623 5630 5645 5654 5652 5654 5658 5656 5652 5657 5672 5666 5687 5674 5682 5669 5663 5657 5650 5639 5632 5625
5382 5393 5401 5410 5410 5410 5410 5417 5421 5436 5436 5445 5433 5443 5487 5496 5514 5539 5527 5543 5557 5571 5586 5606 5626 5631 5636 5638 5643 5645 5651 5655 5659 5668 5672 5673 5671 5688 5689 5673 5659 5651 5642 5634 5630
5380 5388 5393 5398 5398 5389 5408 5412 5413 5418 5428 5434 5442 5448 5458 5487 5503 5515 5508 5517 5530 5541 5563 5589 5606 5615 5629 5629 5625 5631 5653 5654 5661 5671 5676 5665 5685 5685 5671 5672 5667 5656 5648 5641 5638